FW7449 Weather Reports


time (UTC)temp
C
wind
direction
speed
KPH
gust
KPH
rain 1hr
cm
rain 24hr
cm
rain mn
cm
humidity
%
barometer
mb
20260508194540 21 165 4.8 14.5 0.00 0.00 0.00 43 1015.2
20260508193048 20 169 4.8 17.7 0.00 0.00 0.00 44 1015.2
20260508191541 21 242 4.8 19.3 0.00 0.00 0.00 44 1015.6
20260508190045 20 213 6.4 20.9 0.00 0.00 0.00 44 1015.6
20260508184537 21 178 4.8 12.9 0.00 0.00 0.00 42 1015.8
20260508183049 21 246 4.8 16.1 0.00 0.00 0.00 42 1015.9
20260508181542 20 173 3.2 16.1 0.00 0.00 0.00 42 1016.2
20260508180040 22 115 3.2 14.5 0.00 0.00 0.00 35 1016.3
20260508174557 22 202 3.2 11.3 0.00 0.00 0.00 34 1016.4
20260508173046 22 241 3.2 16.1 0.00 0.00 0.00 35 1016.7
20260508171543 22 25 3.2 9.7 0.00 0.00 0.00 35 1016.8
20260508170040 21 298 3.2 12.9 0.00 0.00 0.00 36 1017.2
20260508164546 22 247 4.8 16.1 0.00 0.00 0.00 35 1017.5
20260508163106 22 263 4.8 12.9 0.00 0.00 0.00 33 1017.8
20260508161537 20 235 3.2 12.9 0.00 0.00 0.00 39 1017.9
20260508160040 20 0 4.8 16.1 0.00 0.00 0.00 38 1018.2
20260508154545 20 15 3.2 12.9 0.00 0.00 0.00 38 1018.5
20260508153041 20 244 1.6 6.4 0.00 0.00 0.00 40 1018.4
20260508151541 20 259 1.6 11.3 0.00 0.00 0.00 40 1018.4
20260508150036 18 265 3.2 12.9 0.00 0.00 0.00 42 1018.5
20260508144537 17 0 4.8 11.3 0.00 0.00 0.00 46 1018.5
20260508143041 18 223 0.0 6.4 0.00 0.00 0.00 44 1018.5
20260508141541 18 350 1.6 4.8 0.00 0.00 0.00 46 1018.6
20260508140040 17 58 1.6 6.4 0.00 0.00 0.00 48 1018.8
20260508134541 16 82 0.0 8.0 0.00 0.00 0.00 51 1018.7
20260508133039 15 0 1.6 8.0 0.00 0.00 0.00 52 1018.7
20260508131550 16 336 1.6 4.8 0.00 0.00 0.00 52 1018.7
20260508130052 15 256 0.0 4.8 0.00 0.00 0.00 62 1018.4
20260508124539 13 0 0.0 3.2 0.00 0.13 0.00 71 1018.4
20260508123038 12 0 0.0 1.6 0.00 0.13 0.00 77 1018.2
20260508121549 11 0 0.0 0.0 0.00 0.13 0.00 80 1018.2
20260508120043 10 0 0.0 1.6 0.00 0.13 0.00 81 1018.1
20260508114541 9 0 0.0 0.0 0.00 0.30 0.00 87 1017.9
20260508113049 8 0 0.0 0.0 0.00 0.30 0.00 91 1017.7
20260508111537 7 0 0.0 0.0 0.00 0.30 0.00 91 1017.3
20260508110054 7 0 0.0 0.0 0.00 0.30 0.00 90 1017.2
20260508104540 7 0 0.0 0.0 0.00 0.36 0.00 90 1017.0
20260508103042 7 0 0.0 0.0 0.00 0.36 0.00 90 1016.5
20260508101549 7 0 0.0 0.0 0.00 0.36 0.00 90 1016.1
20260508100040 7 0 0.0 0.0 0.00 0.36 0.00 90 1016.0
20260508094540 7 0 0.0 0.0 0.00 0.36 0.00 89 1015.9
20260508093052 8 0 0.0 0.0 0.00 0.36 0.00 90 1015.9
20260508091541 8 0 0.0 0.0 0.00 0.36 0.00 89 1015.8
20260508084540 8 0 0.0 4.8 0.00 0.38 0.00 88 1015.6
20260508083036 8 301 0.0 4.8 0.00 0.38 0.00 88 1015.7
20260508081536 8 0 0.0 3.2 0.00 0.38 0.00 87 1015.4
20260508080041 9 0 0.0 3.2 0.00 0.38 0.00 88 1015.3
20260508074542 9 0 0.0 1.6 0.00 0.38 0.00 87 1015.3
20260508073040 9 296 0.0 4.8 0.00 0.38 0.00 87 1015.2
20260508071534 10 0 0.0 0.0 0.00 0.38 0.00 85 1015.3
20260508070044 10 0 0.0 0.0 0.00 0.38 0.00 85 1015.1
20260508064540 10 0 0.0 0.0 0.00 0.38 0.00 84 1015.0
20260508063039 10 0 0.0 0.0 0.00 0.38 0.00 84 1015.0
20260508061536 10 0 0.0 0.0 0.00 0.38 0.00 83 1014.9
20260508060040 10 0 0.0 0.0 0.00 0.38 0.00 83 1014.9
20260508054604 10 0 0.0 0.0 0.00 0.51 0.00 81 1015.0
20260508053042 11 0 0.0 0.0 0.00 0.51 0.00 80 1015.0
20260508051540 11 0 0.0 1.6 0.00 0.51 0.00 78 1014.9
20260508050041 11 0 0.0 6.4 0.00 0.51 0.00 76 1014.9
20260508044553 12 0 0.0 0.0 0.00 0.56 0.00 75 1014.4
20260508043044 12 0 0.0 0.0 0.00 0.56 0.00 73 1014.6
20260508041550 12 0 0.0 0.0 0.00 0.56 0.00 73 1014.4
20260508040045 13 0 0.0 1.6 0.00 0.56 0.00 70 1014.3
20260508034541 13 0 0.0 4.8 0.00 0.58 0.56 67 1014.3
20260508033037 13 355 6.4 14.5 0.00 0.58 0.56 66 1014.4
20260508031536 13 28 4.8 16.1 0.00 0.58 0.56 66 1014.3
20260508030054 13 342 9.7 20.9 0.00 0.58 0.56 65 1014.2
20260508024541 13 341 11.3 24.1 0.00 0.64 0.56 65 1014.0
20260508023045 13 315 8.0 14.5 0.00 0.64 0.56 64 1013.7
20260508021537 14 309 8.0 19.3 0.00 0.64 0.56 63 1013.6
20260508020041 14 294 11.3 24.1 0.00 0.64 0.56 62 1013.5
20260508014540 14 342 14.5 24.1 0.00 0.74 0.56 63 1013.1
20260508013039 14 321 11.3 17.7 0.00 0.74 0.56 62 1013.0
20260508011540 14 309 9.7 17.7 0.00 0.74 0.56 62 1013.0
20260508010041 15 323 8.0 16.1 0.00 0.74 0.56 62 1012.6
20260508004541 15 343 8.0 19.3 0.00 0.94 0.56 60 1012.7
20260508003039 15 360 4.8 17.7 0.00 0.94 0.56 60 1012.2
20260508001542 15 346 9.7 17.7 0.00 0.94 0.56 59 1012.0
20260508000035 16 355 11.3 24.1 0.00 0.94 0.56 60 1011.8
20260507234542 16 360 11.3 22.5 0.00 0.94 0.56 60 1012.0
20260507233042 17 320 11.3 24.1 0.00 0.94 0.56 60 1011.5
20260507231550 17 5 6.4 22.5 0.00 0.94 0.56 59 1011.5
20260507230041 18 342 6.4 19.3 0.00 0.94 0.56 58 1011.1
20260507224554 19 335 9.7 19.3 0.00 0.97 0.56 57 1010.9
20260507223043 21 333 11.3 27.4 0.00 0.97 0.56 54 1010.4
20260507221543 22 355 12.9 25.7 0.00 0.97 0.56 50 1010.0
20260507220040 23 335 9.7 20.9 0.00 0.97 0.56 51 1009.6
20260507214541 23 342 12.9 20.9 0.00 0.97 0.56 51 1009.3
20260507213047 23 323 8.0 17.7 0.00 0.97 0.56 52 1009.1
20260507211535 23 284 9.7 22.5 0.00 0.97 0.56 52 1008.7
20260507210107 24 343 11.3 24.1 0.00 0.97 0.56 51 1008.7
20260507204540 24 330 9.7 25.7 0.00 0.97 0.56 53 1008.5
20260507203040 25 5 12.9 24.1 0.00 0.97 0.56 51 1008.2
20260507201539 25 254 12.9 24.1 0.00 0.97 0.56 48 1008.2
20260507200050 27 281 3.2 19.3 0.00 0.97 0.56 48 1007.9